Find SATURN

NORAD ID: 57174 Int'l Des: NNA 2023-091 Owner: KGTU Country: RU operational
LEOCIRCULARRETROGRADESSO

Live Position

Loading 3D Globe...

About SATURN

Description loading...

Upcoming Passes

Passes for default location (London). Set your location on the main map for personalized predictions.

Altitude History

Loading altitude history...

Two-Line Element Set

1 57174U 23091J 26106.24827878 .00002103 00000-0 12088-3 0 9998
2 57174 97.5120 160.2276 0013384 9.0411 351.1059 15.13515470154262
Epoch: Apr 16, 2026 • Age: 9 hours

Current Status

Altitude 536.3 km
Velocity 7.59 km/s
Sub-Earth Point 18.29°N, 80.74°W
Launch Date Jun 27, 2023
Age 2.8 years
Type other

Technical Details

Classification Payload
Mass 10.00 kg
Dry Mass 10.00 kg
Total Mass 10.00 kg
Length 0.30 m
Diameter 0.20 m
Span 0.30 m
Shape Box
Manufacturer KGTU
Bus Type Cubesat 6U
Phase Status In Orbit
Owner/State KGTU/RU

Most Searched